DW4515 Weather Reports


time (UTC)temp
F
wind
direction
speed
knots
gust
knots
rain 1hr
in
rain 24hr
in
rain mn
in
humidity
%
barometer
mb
20220812004535 83 173 16.5 20.9 0.00 0.00 0.00 49 1016.0
20220812004055 85 192 17.4 20.0 0.00 0.00 0.00 45 1015.9
20220812003555 88 193 14.8 20.0 0.00 0.00 0.00 41 1016.5
20220812003117 89 51 0.9 2.6 0.00 0.00 0.00 36 1016.6
20220812002535 89 5 0.9 1.7 0.00 0.00 0.00 36 1016.6
20220812002035 89 5 1.7 3.5 0.00 0.00 0.00 37 1016.6
20220812001555 89 139 1.7 3.5 0.00 0.00 0.00 37 1016.6
20220812001035 89 346 2.6 4.3 0.00 0.00 0.00 37 1016.6
20220812000617 89 323 1.7 4.3 0.00 0.00 0.00 36 1016.6
20220812000117 89 319 2.6 4.3 0.00 0.00 0.00 36 1016.6
20220811235557 89 355 2.6 4.3 0.00 0.00 0.00 36 1016.5
20220811235055 88 351 3.5 6.1 0.00 0.00 0.00 36 1016.2
20220811234555 88 333 5.2 7.0 0.00 0.00 0.00 36 1016.2
20220811234055 88 256 4.3 7.8 0.00 0.00 0.00 37 1016.1
20220811233555 88 24 4.3 7.0 0.00 0.00 0.00 37 1016.4
20220811233323 88 112 4.3 9.6 0.00 0.00 0.00 37 1016.4
20220811233117 88 32 7.8 10.4 0.00 0.00 0.00 37 1016.4
20220811232535 88 239 8.7 9.6 0.00 0.00 0.00 38 1016.4
20220811232117 88 316 7.8 12.2 0.00 0.00 0.00 38 1016.4
20220811231535 88 100 7.8 11.3 0.00 0.00 0.00 39 1016.4
20220811231055 88 13 9.6 13.0 0.00 0.00 0.00 39 1016.4
20220811230557 88 25 9.6 11.3 0.00 0.00 0.00 40 1016.4
20220811230035 87 131 9.6 12.2 0.00 0.00 0.00 41 1016.4
20220811225557 87 244 7.0 10.4 0.00 0.00 0.00 41 1016.3
20220811225055 87 331 7.8 13.9 0.00 0.00 0.00 41 1016.6
20220811224617 87 188 13.0 14.8 0.00 0.00 0.00 42 1016.5
20220811224035 86 313 10.4 15.6 0.00 0.00 0.00 42 1016.5
20220811223617 87 339 12.2 14.8 0.00 0.00 0.00 43 1016.9
20220811223055 87 315 8.7 14.8 0.00 0.00 0.00 42 1016.9
20220811222617 87 281 12.2 14.8 0.00 0.00 0.00 43 1017.4
20220811222035 87 321 5.2 9.6 0.00 0.00 0.00 43 1017.3
20220811221555 87 309 8.7 11.3 0.00 0.00 0.00 43 1017.3
20220811221117 87 277 8.7 12.2 0.00 0.00 0.00 44 1017.6
20220811220617 86 238 11.3 17.4 0.00 0.00 0.00 42 1017.5
20220811220055 86 238 14.8 16.5 0.00 0.00 0.00 42 1017.5
20220811215617 87 258 11.3 16.5 0.00 0.00 0.00 42 1017.7
20220811215035 87 250 11.3 15.6 0.00 0.00 0.00 42 1017.7
20220811214535 88 234 13.0 16.5 0.00 0.00 0.00 40 1017.5
20220811214035 88 244 11.3 15.6 0.00 0.00 0.00 40 1017.5
20220811213557 88 228 13.0 17.4 0.00 0.00 0.00 40 1017.5
20220811213037 88 230 18.2 20.9 0.00 0.00 0.00 38 1017.5
20220811212557 89 235 17.4 20.0 0.00 0.00 0.00 36 1017.6
20220811212035 90 248 16.5 19.1 0.00 0.00 0.00 35 1017.4
20220811211617 90 242 18.2 20.9 0.00 0.00 0.00 35 1017.4
20220811211035 90 245 18.2 24.3 0.00 0.00 0.00 34 1017.8
20220811210617 92 246 19.1 24.3 0.00 0.00 0.00 34 1018.1
20220811210117 92 246 19.1 25.2 0.00 0.00 0.00 36 1018.2
20220811205535 92 255 20.0 24.3 0.00 0.00 0.00 35 1017.8
20220811205055 93 244 17.4 21.7 0.00 0.00 0.00 35 1018.0
20220811204555 94 258 6.1 10.4 0.00 0.00 0.00 33 1018.5
20220811204117 93 302 5.2 9.6 0.00 0.00 0.00 34 1018.4
20220811203555 93 293 7.8 9.6 0.00 0.00 0.00 34 1018.7
20220811203055 93 279 5.2 10.4 0.00 0.00 0.00 35 1018.6
20220811202555 92 301 7.8 10.4 0.00 0.00 0.00 35 1018.6
20220811202035 93 302 6.1 10.4 0.00 0.00 0.00 34 1018.7
20220811201557 94 122 2.6 6.1 0.00 0.00 0.00 34 1018.8
20220811201057 93 294 3.5 6.1 0.00 0.00 0.00 34 1019.0
20220811200555 93 308 3.5 7.8 0.00 0.00 0.00 34 1019.0
20220811200117 93 312 2.6 8.7 0.00 0.00 0.00 34 1019.0
20220811195535 93 295 3.5 10.4 0.00 0.00 0.00 33 1019.1
20220811195055 94 309 2.6 9.6 0.00 0.00 0.00 33 1019.1
20220811194555 93 308 1.7 4.3 0.00 0.00 0.00 34 1019.1
20220811194117 92 92 2.6 5.2 0.00 0.00 0.00 35 1018.9
20220811193617 92 74 3.5 7.0 0.00 0.00 0.00 34 1019.2
20220811193055 92 340 0.0 6.1 0.00 0.00 0.00 35 1019.2
20220811192535 92 343 0.9 5.2 0.00 0.00 0.00 35 1019.5
20220811192055 92 256 3.5 7.0 0.00 0.00 0.00 35 1019.4
20220811192001 92 263 6.1 7.0 0.00 0.00 0.00 35 1019.5
20220811191617 91 325 2.6 3.5 0.00 0.00 0.00 36 1019.4
20220811191055 91 281 3.5 7.8 0.00 0.00 0.00 36 1019.3
20220811190557 91 277 7.0 8.7 0.00 0.00 0.00 36 1019.3
20220811190055 91 277 3.5 6.1 0.00 0.00 0.00 35 1019.6
20220811185617 92 220 6.1 7.8 0.00 0.00 0.00 35 1019.8
20220811185035 92 198 0.9 5.2 0.00 0.00 0.00 35 1019.8
20220811184535 92 299 0.9 5.2 0.00 0.00 0.00 35 1020.2
20220811184055 92 294 0.9 2.6 0.00 0.00 0.00 35 1020.1
20220811183535 92 302 1.7 4.3 0.00 0.00 0.00 35 1020.1
20220811183035 91 87 0.9 3.5 0.00 0.00 0.00 37 1020.0
20220811182617 90 36 1.7 5.2 0.00 0.00 0.00 36 1019.9
20220811182035 90 59 2.6 5.2 0.00 0.00 0.00 36 1019.9
20220811181535 91 88 3.5 7.0 0.00 0.00 0.00 36 1020.0
20220811181035 91 85 0.9 3.5 0.00 0.00 0.00 36 1020.3
20220811180555 91 279 1.7 3.5 0.00 0.00 0.00 35 1020.3
20220811180117 90 355 0.9 4.3 0.00 0.00 0.00 37 1020.2
20220811175617 89 267 1.7 3.5 0.00 0.00 0.00 38 1020.0
20220811175035 88 191 0.9 2.6 0.00 0.00 0.00 39 1019.9
20220811174555 88 190 2.6 6.1 0.00 0.00 0.00 38 1019.8
20220811174035 88 218 1.7 5.2 0.00 0.00 0.00 39 1019.8
20220811173535 88 201 1.7 5.2 0.00 0.00 0.00 38 1019.8
20220811173035 88 158 3.5 5.2 0.00 0.00 0.00 38 1019.9
20220811172535 88 100 0.9 3.5 0.00 0.00 0.00 39 1019.8
20220811172055 87 123 0.9 3.5 0.00 0.00 0.00 41 1019.7
20220811171617 87 108 1.7 5.2 0.00 0.00 0.00 41 1019.9
20220811171117 87 153 3.5 5.2 0.00 0.00 0.00 41 1019.9
20220811170535 86 135 1.7 4.3 0.00 0.00 0.00 42 1019.8
20220811170117 86 61 1.7 4.3 0.00 0.00 0.00 42 1019.8
20220811165617 86 194 2.6 4.3 0.00 0.00 0.00 42 1019.8
20220811165055 85 98 1.7 4.3 0.00 0.00 0.00 45 1019.7
20220811164555 85 109 0.9 3.5 0.00 0.00 0.00 45 1019.6
20220811164055 85 120 2.6 6.1 0.00 0.00 0.00 46 1019.5
20220811163535 84 129 1.7 7.0 0.00 0.00 0.00 46 1019.4
20220811163055 84 163 1.7 5.2 0.00 0.00 0.00 47 1019.4
20220811162555 83 140 3.5 7.0 0.00 0.00 0.00 48 1019.3
20220811162035 83 123 4.3 7.0 0.00 0.00 0.00 49 1019.3
20220811161555 83 109 2.6 4.3 0.00 0.00 0.00 50 1019.2
20220811161117 82 104 3.5 6.1 0.00 0.00 0.00 50 1019.1
20220811160535 82 101 4.3 7.0 0.00 0.00 0.00 51 1019.4
20220811160117 82 93 4.3 6.1 0.00 0.00 0.00 52 1019.4
20220811155535 82 96 4.3 7.0 0.00 0.00 0.00 52 1019.3
20220811155055 82 105 3.5 7.0 0.00 0.00 0.00 53 1019.4
20220811154555 81 97 2.6 6.1 0.00 0.00 0.00 54 1019.3
20220811154035 81 88 0.9 2.6 0.00 0.00 0.00 56 1019.2
20220811153535 80 82 1.7 2.6 0.00 0.00 0.00 58 1019.1
20220811153055 80 82 1.7 3.5 0.00 0.00 0.00 59 1019.1
20220811152535 79 142 0.9 2.6 0.00 0.00 0.00 61 1018.9
20220811152035 78 142 0.0 2.6 0.00 0.00 0.00 62 1018.8
20220811151555 78 142 1.7 3.5 0.00 0.00 0.00 64 1018.7
20220811151117 77 163 1.7 3.5 0.00 0.00 0.00 65 1018.6
20220811150535 76 165 0.9 3.5 0.00 0.00 0.00 66 1018.4
20220811150035 76 165 0.9 4.3 0.00 0.00 0.00 68 1018.3
20220811145555 76 134 1.7 3.5 0.00 0.00 0.00 68 1018.2
20220811145035 75 119 2.6 3.5 0.00 0.00 0.00 69 1018.2
20220811144555 75 119 1.7 3.5 0.00 0.00 0.00 70 1017.8
20220811144117 75 118 3.5 5.2 0.00 0.00 0.00 70 1017.8
20220811143535 75 108 3.5 5.2 0.00 0.00 0.00 69 1017.8
20220811143055 74 103 4.3 6.1 0.00 0.00 0.00 70 1017.7
20220811142617 74 102 4.3 6.1 0.00 0.00 0.00 71 1017.6
20220811142117 74 105 3.5 6.1 0.00 0.00 0.00 72 1017.2
20220811141617 73 104 3.5 6.1 0.00 0.00 0.00 72 1017.1
20220811141035 73 99 4.3 6.1 0.00 0.00 0.00 73 1017.1
20220811140557 72 108 3.5 5.2 0.00 0.00 0.00 74 1017.0
20220811140055 72 113 3.5 6.1 0.00 0.00 0.00 75 1016.9
20220811135617 72 108 4.3 6.1 0.00 0.00 0.00 75 1016.8
20220811135117 71 101 5.2 7.0 0.00 0.00 0.00 75 1016.8
20220811134535 71 101 6.1 7.0 0.00 0.00 0.00 76 1016.7
20220811134035 71 104 6.1 7.0 0.00 0.00 0.00 76 1016.6
20220811133535 70 106 5.2 6.1 0.00 0.00 0.00 77 1016.6
20220811133055 71 106 4.3 6.1 0.00 0.00 0.00 77 1016.6
20220811132535 71 107 1.7 3.5 0.00 0.00 0.00 77 1016.6
20220811132117 71 107 2.6 3.5 0.00 0.00 0.00 76 1016.6
20220811131535 71 117 2.6 7.0 0.00 0.00 0.00 76 1016.7
20220811131057 71 121 7.0 8.7 0.00 0.00 0.00 74 1016.7
20220811130555 72 112 5.2 6.1 0.00 0.00 0.00 74 1016.8
20220811130057 71 118 4.3 5.2 0.00 0.00 0.00 74 1016.4
20220811125535 71 93 3.5 3.5 0.00 0.00 0.00 75 1016.4
20220811125055 71 94 2.6 5.2 0.00 0.00 0.00 74 1016.4
20220811124555 71 124 2.6 4.3 0.00 0.00 0.00 74 1016.4
20220811124035 72 125 1.7 3.5 0.00 0.00 0.00 73 1016.5
20220811123535 72 135 2.6 3.5 0.00 0.00 0.00 72 1016.6
20220811123035 73 136 3.5 4.3 0.00 0.00 0.00 71 1016.7
20220811122555 73 136 5.2 7.0 0.00 0.00 0.00 70 1016.7
20220811122055 73 138 5.2 7.8 0.00 0.00 0.00 70 1016.6
20220811121617 72 133 7.0 8.7 0.00 0.00 0.00 71 1016.6
20220811121035 73 138 6.1 8.7 0.00 0.00 0.00 70 1016.7
20220811120555 73 146 4.3 7.0 0.00 0.00 0.00 70 1016.7
20220811120117 73 148 4.3 6.1 0.00 0.00 0.00 69 1016.7
20220811115535 73 135 4.3 6.1 0.00 0.00 0.00 69 1016.7
20220811115117 73 138 4.3 7.0 0.00 0.00 0.00 70 1016.7
20220811114617 72 134 7.0 8.7 0.00 0.00 0.00 71 1016.6
20220811114035 72 114 7.0 8.7 0.00 0.00 0.00 73 1016.5
20220811113535 71 108 6.1 7.8 0.00 0.00 0.00 75 1016.4
20220811113055 71 89 6.1 7.8 0.00 0.00 0.00 75 1016.4
20220811112557 71 85 7.0 7.8 0.00 0.00 0.00 76 1016.4
20220811112057 71 95 7.8 7.8 0.00 0.00 0.00 76 1016.4
20220811111555 71 102 6.1 6.1 0.00 0.00 0.00 76 1016.4
20220811111035 71 105 5.2 7.0 0.00 0.00 0.00 76 1016.4
20220811110557 71 107 5.2 6.1 0.00 0.00 0.00 76 1016.4
20220811110117 71 110 5.2 7.8 0.00 0.00 0.00 77 1016.1
20220811105617 71 113 6.1 7.8 0.00 0.00 0.00 77 1016.4
20220811105057 72 109 5.2 7.0 0.00 0.00 0.00 76 1016.1
20220811104535 72 104 5.2 7.0 0.00 0.00 0.00 76 1016.2
20220811104035 72 120 6.1 7.0 0.00 0.00 0.00 75 1016.2
20220811103535 72 107 2.6 3.5 0.00 0.00 0.00 75 1016.3
20220811103055 73 107 3.5 5.2 0.00 0.00 0.00 74 1016.3
20220811102617 73 101 4.3 5.2 0.00 0.00 0.00 73 1016.4
20220811102055 73 109 3.5 5.2 0.00 0.00 0.00 71 1016.4
20220811101555 73 110 3.5 5.2 0.00 0.00 0.00 73 1016.4
20220811101055 73 131 4.3 4.3 0.00 0.00 0.00 71 1016.5
20220811100555 73 131 4.3 4.3 0.00 0.00 0.00 70 1016.5
20220811100057 74 131 2.6 4.3 0.00 0.00 0.00 70 1016.6
20220811095555 74 131 1.7 3.5 0.00 0.00 0.00 68 1016.5
20220811095055 74 131 3.5 4.3 0.00 0.00 0.00 70 1016.5
20220811094535 73 131 2.6 2.6 0.00 0.00 0.00 71 1016.5
20220811094055 74 131 0.0 2.6 0.00 0.00 0.00 71 1016.5
20220811093617 74 131 1.7 2.6 0.00 0.00 0.00 71 1016.5
20220811093035 74 131 1.7 2.6 0.00 0.00 0.00 71 1016.7
20220811092557 74 131 0.9 2.6 0.00 0.00 0.00 68 1016.6
20220811092057 74 131 1.7 2.6 0.00 0.00 0.00 67 1016.7
20220811091557 75 131 1.7 1.7 0.00 0.00 0.00 68 1016.7
20220811091055 75 131 1.7 2.6 0.00 0.00 0.00 67 1016.8
20220811090535 75 131 2.6 3.5 0.00 0.00 0.00 68 1016.8
20220811090055 75 131 2.6 3.5 0.00 0.00 0.00 68 1016.8
20220811085535 75 131 2.6 3.5 0.00 0.00 0.00 68 1016.8
20220811085035 75 131 2.6 3.5 0.00 0.00 0.00 70 1016.7
20220811084555 74 131 1.7 2.6 0.00 0.00 0.00 71 1016.6
20220811084059 74 131 0.0 0.9 0.00 0.00 0.00 72 1016.6
20220811083617 74 131 0.0 0.0 0.00 0.00 0.00 72 1016.7
20220811083058 74 131 0.0 1.7 0.00 0.00 0.00 72 1016.7
20220811082555 75 131 0.9 1.7 0.00 0.00 0.00 71 1016.8
20220811082057 75 131 1.7 2.6 0.00 0.00 0.00 70 1016.8
20220811081555 75 131 2.6 3.5 0.00 0.00 0.00 68 1016.9
20220811081117 76 144 2.6 3.5 0.00 0.00 0.00 68 1016.9
20220811080555 75 175 1.7 2.6 0.00 0.00 0.00 68 1016.9
20220811080117 75 175 0.9 2.6 0.00 0.00 0.00 68 1016.9
20220811075617 75 175 1.7 3.5 0.00 0.00 0.00 68 1017.1
20220811075117 75 175 1.7 3.5 0.00 0.00 0.00 70 1017.1
20220811074535 75 175 2.6 6.1 0.00 0.00 0.00 70 1017.1
20220811074117 75 133 3.5 7.0 0.00 0.00 0.00 70 1017.1
20220811073535 75 128 6.1 7.0 0.00 0.00 0.00 70 1017.1
20220811073035 74 124 7.0 7.8 0.00 0.00 0.00 70 1016.7
20220811072557 74 113 7.0 8.7 0.00 0.00 0.01 71 1017.0
20220811072055 75 93 7.8 9.6 0.00 0.00 0.01 71 1017.1
20220811071535 75 81 6.1 7.0 0.00 0.00 0.01 69 1017.1
20220811071035 75 101 5.2 6.1 0.00 0.00 0.01 69 1017.2
20220811070535 75 110 5.2 7.0 0.00 0.00 0.01 69 1017.2
20220811070035 76 112 7.0 8.7 0.00 0.00 0.01 67 1017.3
20220811065535 76 133 7.0 7.8 0.00 0.00 0.01 67 1017.3
20220811065055 75 139 6.1 7.8 0.00 0.00 0.01 68 1017.2
20220811064617 75 144 2.6 7.0 0.00 0.00 0.01 70 1017.2
20220811064117 75 144 5.2 7.0 0.00 0.00 0.01 70 1017.2
20220811063617 76 150 4.3 6.1 0.00 0.00 0.01 68 1017.3
20220811063117 76 159 4.3 6.1 0.00 0.00 0.01 66 1017.3
20220811062535 77 143 2.6 3.5 0.00 0.00 0.01 64 1017.4
20220811062035 77 142 2.6 4.3 0.00 0.00 0.01 63 1017.5
20220811061559 77 194 2.6 3.5 0.00 0.00 0.01 62 1017.5
20220811061055 77 200 1.7 2.6 0.00 0.00 0.01 62 1017.5
20220811060617 77 200 1.7 3.5 0.00 0.00 0.01 61 1017.6
20220811060117 78 200 3.5 5.2 0.00 0.00 0.01 61 1017.6
20220811055617 78 189 3.5 4.3 0.00 0.00 0.01 61 1017.7
20220811055035 78 182 2.6 3.5 0.00 0.00 0.01 60 1017.7
20220811054617 78 183 2.6 4.3 0.00 0.00 0.01 60 1017.7
20220811054055 78 182 3.5 4.3 0.00 0.00 0.01 60 1017.7
20220811053555 78 130 1.7 2.6 0.00 0.00 0.01 61 1017.7
20220811053035 78 49 0.0 0.0 0.00 0.00 0.01 61 1017.7
20220811052617 78 49 0.0 0.0 0.00 0.00 0.01 62 1017.8
20220811052035 79 49 0.0 1.7 0.00 0.00 0.01 61 1017.8
20220811051535 79 49 0.9 1.7 0.00 0.00 0.01 60 1017.8
20220811051037 79 49 0.0 0.9 0.00 0.00 0.01 59 1017.9
20220811050557 79 49 0.0 0.9 0.00 0.00 0.01 58 1018.2
20220811050055 79 49 0.9 2.6 0.00 0.00 0.01 58 1018.2
20220811045555 79 49 0.9 2.6 0.00 0.00 0.01 58 1018.2
20220811045055 79 49 1.7 2.6 0.00 0.00 0.01 59 1018.2
20220811044555 79 49 1.7 3.5 0.00 0.00 0.01 58 1018.2
20220811044117 80 49 2.6 4.3 0.00 0.00 0.01 58 1018.3
20220811043535 80 201 1.7 2.6 0.00 0.00 0.01 55 1018.4
20220811043035 80 202 0.9 2.6 0.00 0.00 0.01 55 1018.4
20220811042617 80 202 2.6 4.3 0.00 0.00 0.01 55 1018.4
20220811042035 80 190 2.6 5.2 0.00 0.00 0.01 55 1018.4
20220811041555 80 192 4.3 6.1 0.00 0.00 0.01 55 1018.4
20220811041035 80 202 4.3 7.0 0.00 0.00 0.01 54 1018.3
20220811040557 80 206 5.2 7.0 0.00 0.00 0.01 54 1018.0
20220811040117 80 193 5.2 7.0 0.00 0.00 0.01 53 1018.1
20220811035555 80 194 6.1 8.7 0.00 0.00 0.01 52 1018.1
20220811035117 80 183 7.0 8.7 0.00 0.00 0.01 52 1018.1
20220811034617 81 196 7.0 7.8 0.00 0.00 0.01 51 1018.1
20220811034057 81 196 7.8 9.6 0.00 0.00 0.01 51 1018.2
20220811033555 81 208 7.8 10.4 0.00 0.00 0.01 51 1018.3
20220811033035 82 206 7.0 7.8 0.00 0.00 0.01 52 1018.4
20220811032535 82 205 7.0 8.7 0.00 0.00 0.01 51 1018.4
20220811032117 82 194 5.2 10.4 0.00 0.00 0.01 50 1018.1
20220811031555 82 183 8.7 13.0 0.00 0.00 0.01 50 1018.1
20220811031117 82 178 8.7 13.0 0.00 0.00 0.01 50 1018.1
20220811030555 82 178 7.8 13.0 0.00 0.00 0.01 51 1018.1
20220811030035 82 187 9.6 11.3 0.00 0.00 0.01 51 1018.0
20220811025555 81 178 7.8 10.4 0.00 0.00 0.01 52 1018.0
20220811025035 81 183 7.8 12.2 0.00 0.00 0.01 54 1018.0
20220811024555 81 148 9.6 13.0 0.00 0.00 0.01 53 1018.0
20220811024055 81 144 9.6 12.2 0.00 0.00 0.01 53 1018.0
20220811023535 82 136 9.6 12.2 0.00 0.00 0.01 52 1018.0
20220811023117 82 139 10.4 13.0 0.00 0.00 0.01 52 1018.0
20220811022617 82 138 12.2 15.6 0.00 0.00 0.01 51 1018.0
20220811022055 82 133 13.0 15.6 0.00 0.00 0.01 51 1018.0
20220811021555 81 133 12.2 14.8 0.00 0.00 0.01 52 1018.0
20220811021055 81 130 12.2 15.6 0.00 0.00 0.01 54 1017.6
20220811020555 81 130 12.2 14.8 0.00 0.00 0.01 55 1018.0
20220811020057 81 132 11.3 13.9 0.00 0.00 0.01 55 1018.0
20220811015555 82 133 11.3 14.8 0.00 0.00 0.01 54 1018.0
20220811015117 82 134 12.2 14.8 0.00 0.00 0.01 53 1018.1
20220811014617 82 134 13.0 16.5 0.00 0.00 0.01 51 1018.2
20220811014117 83 132 13.9 15.6 0.00 0.00 0.01 50 1018.2
20220811013555 83 135 11.3 13.0 0.00 0.00 0.01 51 1018.3
20220811013035 84 138 10.4 13.9 0.00 0.00 0.01 51 1018.4
20220811012555 85 136 11.3 13.9 0.00 0.00 0.01 52 1018.3
20220811012117 85 136 6.1 7.0 0.00 0.00 0.01 54 1018.3
20220811011535 85 130 6.1 8.7 0.00 0.00 0.01 53 1018.4
20220811011036 85 130 7.0 8.7 0.00 0.00 0.01 51 1018.4
20220811010535 85 138 7.0 8.7 0.00 0.00 0.01 50 1018.4
20220811010035 85 134 6.1 8.7 0.00 0.00 0.01 50 1018.4
20220811005555 85 131 7.8 8.7 0.00 0.00 0.01 49 1018.1
20220811005055 85 131 7.8 8.7 0.00 0.00 0.01 49 1018.4